{"data":{"norad_id":53071,"intl_designator":"2022-077AE","name":"STARLINK-4328","alt_names":[],"object_type":"PAYLOAD","status":"ACTIVE","operator":null,"country":"US","launch_date":"2022-07-11","launch_site_code":"AFWTR","launch_vehicle":null,"mission":null,"orbit_class":"UNKNOWN","rcs_meters":null,"size_class":null,"mass_kg":null,"dimensions":null,"purposes":["comms"],"wikipedia_slug":null,"has_3d_model":false,"image_url":null,"decayed_at":null,"tle_current":{"epoch":"2026-09-19T18:35:56.124096Z","epoch_age_seconds":134959,"freshness":"FRESH","line1":"1 53071U 22077AE  26262.77495514 -.00000624  00000+0 -16999-4 0  9995","line2":"2 53071  97.2852  78.5385 0001782  85.1937 274.9509 15.33426948230240","mean_motion":15.33426948,"eccentricity":0.0001782,"inclination_deg":97.2852,"raan_deg":78.5385,"arg_perigee_deg":85.1937,"mean_anomaly_deg":274.9509,"bstar":-1.6999e-5,"rev_number":23024,"period_min":93.907310151171,"perigee_km":464.37733167806,"apogee_km":466.81643843469,"semimajor_km":6843.7338850564,"source":"CELESTRAK","updated_at":"2026-09-20T09:00:40.155770Z"}}}